Location: Centerville
(32.8776°N, 96.6203°W)
Time: 01:38:34
(UTC+00:00)

Cosmos 1544 Rocket - Pass Details

Date: 17 June 2021
Orbit: 604 x 631 km, 82.5° (Epoch: 27 July)

Event Time Altitude Azimuth Distance (km) Brightness Sun altitude
Rises 04:31:10 0° 350° (N) 2,924 8.1 -27.3°
Reaches altitude 10° 04:33:25 10° 347° (NNW) 2,010 7.1 -27.5°
Enters shadow 04:37:03 53° 316° (NW) 769 4.2 -27.9°
